Location: Goll?ig?dem
(16.6773°N, 80.7332°E)
Time: 11:43:34
(UTC+00:00)

Hubble Space Telescope - Visible Passes

Search period start: 28 September 2021 00:00
Search period end: 08 October 2021 00:00
Orbit: 535 x 539 km, 28.5° (Epoch: 27 September)

Date Brightness Start Highest point End Pass type
(mag) Time Alt. Az. Time Alt. Az. Time Alt. Az.
01 Oct 2.9 23:59:00 10° SSW 00:02:18 23° SSE 00:05:35 10° E visible
02 Oct 2.4 23:47:33 10° SW 23:51:13 31° SSE 23:54:54 10° E visible
03 Oct 1.8 23:36:16 10° SW 23:40:09 42° SSE 23:44:04 10° E visible
04 Oct 1.2 23:26:23 20° SW 23:29:05 58° SSE 23:33:08 10° ENE visible
05 Oct 0.7 23:16:26 36° WSW 23:18:01 80° SSE 23:22:09 10° ENE visible
06 Oct 0.6 23:06:24 62° W 23:06:59 77° NNW 23:11:06 10° ENE visible
07 Oct 1.0 22:56:18 55° N 22:56:18 55° N 23:00:01 10° ENE visible
